When you browse on this site, cookies collect data to enhance your experience and personalize the content and advertising you see.
Visit our Privacy Policy to learn more. By continuing to use the site, you agree to this use of cookies and data.
  • In France
  • List of Countries
  • For 7 days
  • Water Temperature
  • Weather Map
  • Weather Widgets
  • user-avatar
    Login

    Hourly Weather Baden-Baden

    Today, 26 January, Sunday

    Time Temperature Precipitation Wind Pressure Humidity
    00:00 +1°C° 0 mm 0 mps 732 mmHg 89%
    01:00 +1°C° 0 mm 0 mps 732 mmHg 89%
    02:00 +1°C° 0 mm 0 mps 732 mmHg 89%
    03:00 +1°C° 0 mm 0 mps 732 mmHg 89%
    04:00 +1°C° 0 mm 0 mps 731 mmHg 90%
    05:00 +1°C° 0 mm 0 mps 731 mmHg 90%
    06:00 +2°C° 0 mm 1 mps 731 mmHg 90%
    07:00 +2°C° 0 mm 1 mps 731 mmHg 90%
    08:00 +3°C° 0 mm 1 mps 731 mmHg 87%
    09:00 +4°C° 0 mm 1 mps 732 mmHg 83%
    10:00 +4°C° 0 mm 1 mps 732 mmHg 80%
    11:00 +6°C° 0 mm 1 mps 732 mmHg 77%
    12:00 +7°C° 0 mm 1 mps 731 mmHg 74%
    13:00 +8°C° 0 mm 1 mps 731 mmHg 71%
    14:00 +8°C° 0 mm 1 mps 731 mmHg 74%
    15:00 +8°C° 0 mm 1 mps 731 mmHg 77%
    16:00 +6°C° 0 mm 0 mps 731 mmHg 80%
    17:00 +6°C° 0 mm 1 mps 731 mmHg 83%
    18:00 +5°C° 0 mm 1 mps 731 mmHg 86%
    19:00 +5°C° 0 mm 1 mps 731 mmHg 89%
    20:00 +4°C° 0 mm 1 mps 731 mmHg 90%
    21:00 +3°C° 0 mm 2 mps 731 mmHg 91%
    22:00 +3°C° 0 mm 2 mps 731 mmHg 92%
    23:00 +3°C° 0 mm 2 mps 731 mmHg 92%

    Tomorrow, 27 January, Monday

    Time Temperature Precipitation Wind Pressure Humidity
    00:00 +3°C° 0 mm 2 mps 731 mmHg 92%
    01:00 +4°C° 0 mm 2 mps 731 mmHg 93%
    02:00 +4°C° 0 mm 2 mps 730 mmHg 92%
    03:00 +4°C° 0 mm 2 mps 730 mmHg 92%
    04:00 +3°C° 0 mm 3 mps 730 mmHg 92%
    05:00 +3°C° 0 mm 3 mps 729 mmHg 91%
    06:00 +3°C° 0 mm 3 mps 729 mmHg 90%
    07:00 +3°C° 0 mm 3 mps 729 mmHg 90%
    08:00 +4°C° 0 mm 3 mps 729 mmHg 88%
    09:00 +4°C° 0 mm 3 mps 729 mmHg 85%
    10:00 +5°C° 0 mm 3 mps 729 mmHg 83%
    11:00 +6°C° 0 mm 4 mps 728 mmHg 78%
    12:00 +7°C° 0 mm 4 mps 727 mmHg 73%
    13:00 +8°C° 0 mm 4 mps 726 mmHg 67%
    14:00 +8°C° 0 mm 4 mps 726 mmHg 68%
    15:00 +7°C° 0 mm 4 mps 725 mmHg 69%
    16:00 +8°C° 0 mm 3 mps 725 mmHg 70%
    17:00 +6°C° 0.4 mm 4 mps 724 mmHg 75%
    18:00 +6°C° 0.4 mm 4 mps 724 mmHg 80%
    19:00 +5°C° 0.4 mm 5 mps 723 mmHg 84%
    20:00 +5°C° 0.3 mm 5 mps 723 mmHg 85%
    21:00 +4°C° 0.3 mm 6 mps 723 mmHg 85%
    22:00 +5°C° 0.3 mm 6 mps 722 mmHg 86%
    23:00 +4°C° 0.6 mm 6 mps 721 mmHg 86%

    Day after tomorrow, 28 January, Tuesday

    Time Temperature Precipitation Wind Pressure Humidity
    00:00 +4°C° 0.6 mm 6 mps 720 mmHg 86%
    01:00 +4°C° 0.6 mm 6 mps 719 mmHg 86%
    02:00 +4°C° 0.8 mm 7 mps 719 mmHg 85%
    03:00 +5°C° 0.8 mm 8 mps 718 mmHg 85%
    04:00 +5°C° 0.8 mm 9 mps 718 mmHg 84%
    05:00 +4°C° 0.6 mm 7 mps 718 mmHg 86%
    06:00 +3°C° 0.6 mm 6 mps 718 mmHg 87%
    07:00 +3°C° 0.6 mm 5 mps 717 mmHg 89%
    08:00 +3°C° 1 mm 6 mps 717 mmHg 87%
    09:00 +3°C° 1 mm 7 mps 717 mmHg 85%
    10:00 +2°C° 1 mm 8 mps 717 mmHg 83%
    11:00 +1°C° 0.4 mm 8 mps 718 mmHg 80%
    12:00 +1°C° 0.4 mm 9 mps 719 mmHg 76%
    13:00 +1°C° 0.4 mm 9 mps 719 mmHg 72%
    14:00 +1°C° 0.3 mm 9 mps 720 mmHg 73%
    15:00 0°C° 0.3 mm 8 mps 721 mmHg 73%
    16:00 0°C° 0.3 mm 8 mps 722 mmHg 73%
    17:00 0°C° 0.1 mm 7 mps 722 mmHg 74%
    18:00 -1°C° 0.1 mm 7 mps 722 mmHg 74%
    19:00 -1°C° 0.1 mm 7 mps 722 mmHg 75%
    20:00 -1°C° 0.3 mm 7 mps 722 mmHg 80%
    21:00 -2°C° 0.3 mm 7 mps 722 mmHg 85%
    22:00 -2°C° 0.3 mm 8 mps 721 mmHg 90%
    23:00 -2°C° 1.3 mm 7 mps 721 mmHg 92%

    29 January, Wednesday

    Time Temperature Precipitation Wind Pressure Humidity
    00:00 -2°C° 1.3 mm 6 mps 721 mmHg 93%
    01:00 -1°C° 1.3 mm 5 mps 721 mmHg 95%
    02:00 -1°C° 1.4 mm 5 mps 720 mmHg 95%
    03:00 -1°C° 1.4 mm 5 mps 720 mmHg 95%
    04:00 -1°C° 1.4 mm 5 mps 720 mmHg 95%
    05:00 -1°C° 1.4 mm 5 mps 721 mmHg 95%
    06:00 -1°C° 1.4 mm 5 mps 721 mmHg 94%
    07:00 -1°C° 1.4 mm 5 mps 722 mmHg 93%
    08:00 -1°C° 0.4 mm 5 mps 723 mmHg 90%
    09:00 -1°C° 0.4 mm 5 mps 724 mmHg 87%
    10:00 -1°C° 0.4 mm 5 mps 725 mmHg 84%
    11:00 0°C° 0.1 mm 5 mps 725 mmHg 81%
    12:00 -1°C° 0.1 mm 6 mps 726 mmHg 78%
    13:00 +1°C° 0.1 mm 6 mps 726 mmHg 75%
    14:00 +1°C° 0 mm 6 mps 726 mmHg 75%
    15:00 +1°C° 0 mm 5 mps 727 mmHg 75%
    16:00 0°C° 0 mm 5 mps 727 mmHg 76%
    17:00 0°C° 0 mm 4 mps 727 mmHg 79%
    18:00 -1°C° 0 mm 4 mps 728 mmHg 81%
    19:00 -2°C° 0 mm 4 mps 728 mmHg 84%
    20:00 -2°C° 0.4 mm 4 mps 729 mmHg 87%
    21:00 -1°C° 0.4 mm 4 mps 729 mmHg 90%
    22:00 -1°C° 0.4 mm 4 mps 729 mmHg 92%
    23:00 -1°C° 0.3 mm 4 mps 730 mmHg 93%

    30 January, Thursday

    Time Temperature Precipitation Wind Pressure Humidity
    00:00 -1°C° 0.3 mm 4 mps 730 mmHg 93%
    01:00 -1°C° 0.3 mm 4 mps 731 mmHg 94%
    02:00 0°C° 0.1 mm 3 mps 731 mmHg 94%
    03:00 0°C° 0.1 mm 3 mps 731 mmHg 93%
    04:00 0°C° 0.1 mm 3 mps 731 mmHg 93%
    05:00 +1°C° 0 mm 2 mps 731 mmHg 94%
    06:00 -1°C° 0 mm 2 mps 731 mmHg 94%
    07:00 -1°C° 0 mm 2 mps 731 mmHg 94%
    08:00 +1°C° 0 mm 2 mps 732 mmHg 93%
    09:00 +1°C° 0 mm 2 mps 732 mmHg 92%
    10:00 +2°C° 0 mm 2 mps 732 mmHg 91%
    11:00 +4°C° 0 mm 1 mps 732 mmHg 88%
    12:00 +4°C° 0 mm 1 mps 732 mmHg 86%
    13:00 +5°C° 0 mm 1 mps 731 mmHg 83%
    14:00 +5°C° 0 mm 1 mps 731 mmHg 85%
    15:00 +5°C° 0 mm 1 mps 730 mmHg 86%
    16:00 +5°C° 0 mm 1 mps 730 mmHg 88%
    17:00 +4°C° 0 mm 1 mps 730 mmHg 88%
    18:00 +3°C° 0 mm 1 mps 730 mmHg 88%
    19:00 +2°C° 0 mm 1 mps 730 mmHg 89%
    20:00 +2°C° 0 mm 1 mps 730 mmHg 86%
    21:00 +2°C° 0 mm 1 mps 729 mmHg 84%
    22:00 +2°C° 0 mm 1 mps 729 mmHg 81%
    23:00 +2°C° 0 mm 1 mps 729 mmHg 80%

    31 January, Friday

    Time Temperature Precipitation Wind Pressure Humidity
    00:00 +2°C° 0 mm 1 mps 729 mmHg 78%
    01:00 +2°C° 0 mm 1 mps 729 mmHg 77%
    02:00 +2°C° 0 mm 1 mps 729 mmHg 76%
    03:00 +2°C° 0 mm 1 mps 728 mmHg 75%
    04:00 +2°C° 0 mm 1 mps 728 mmHg 75%
    05:00 +2°C° 0 mm 1 mps 728 mmHg 76%
    06:00 +3°C° 0 mm 1 mps 729 mmHg 77%
    07:00 +4°C° 0 mm 1 mps 729 mmHg 78%
    08:00 +3°C° 0.1 mm 2 mps 729 mmHg 82%
    09:00 +4°C° 0.1 mm 2 mps 729 mmHg 86%
    10:00 +4°C° 0.1 mm 2 mps 729 mmHg 91%
    11:00 +5°C° 0.1 mm 2 mps 729 mmHg 90%
    12:00 +5°C° 0.1 mm 3 mps 730 mmHg 90%
    13:00 +8°C° 0.1 mm 3 mps 730 mmHg 90%
    14:00 +8°C° 0 mm 3 mps 730 mmHg 90%
    15:00 +8°C° 0 mm 2 mps 729 mmHg 91%
    16:00 +8°C° 0 mm 2 mps 729 mmHg 91%
    17:00 +8°C° 0 mm 2 mps 730 mmHg 92%
    18:00 +7°C° 0 mm 2 mps 730 mmHg 93%
    19:00 +7°C° 0 mm 3 mps 730 mmHg 94%
    20:00 +7°C° 0 mm 3 mps 730 mmHg 94%
    21:00 +7°C° 0 mm 3 mps 730 mmHg 93%
    22:00 +7°C° 0 mm 3 mps 730 mmHg 93%
    23:00 +7°C° 0 mm 3 mps 730 mmHg 93%
    Show more